Regional Weather Roundup
Issued by NWS

Home | Current Version | Previous Version | Graphics & Text | Print | Product List | Glossary On
Versions: 1 2 3 4 5 6 7 8 9 10 11 12 13 14 15 16 17 18 19 20 21 22 23 24 25 26 27
000
ASUS45 KBOI 310310
RWRID
WEATHER ROUNDUP FOR IDAHO
NATIONAL WEATHER SERVICE BOISE ID
900 PM MDT THU OCT 30 2014

NOTE: "FAIR" INDICATES FEW OR NO CLOUDS BELOW 12000 FEET
WITH NO SIGNIFICANT WEATHER AND/OR OBSTRUCTIONS TO VISIBILITY

IDZ012-014-310400-
SOUTHWEST IDAHO


CITY           SKY/WX    TMP DP  RH WIND       PRES   REMARKS
BOISE          CLOUDY    56  40  55 CALM      29.92F
CALDWELL       CLOUDY    54  39  58 SW5       29.93F
MOUNTAIN HOME  CLOUDY    65  31  27 SE15G22   29.92F
$$

IDZ016-017-310400-
SOUTHCENTRAL IDAHO


CITY           SKY/WX    TMP DP  RH WIND       PRES   REMARKS
BURLEY         CLOUDY    51  30  44 CALM      30.04F
JEROME         CLOUDY    58  27  30 E12       30.02F
TWIN FALLS     CLOUDY    61  22  22 SE9       30.02F
$$

IDZ019>023-310400-
SOUTHEAST IDAHO


CITY           SKY/WX    TMP DP  RH WIND       PRES   REMARKS
IDAHO FALLS    MOCLDY    46  32  58 N5        30.14F
POCATELLO      CLEAR     54  31  41 NE3       30.10F
REXBURG        MOCLDY    46  30  53 NE8       30.15F
$$

IDZ006-010-011-018-031-032-310400-
CENTRAL IDAHO MOUNTAINS


CITY           SKY/WX    TMP DP  RH WIND       PRES   REMARKS
MCCALL         CLOUDY    47  41  80 NE3       29.99F
HAILEY         MOCLDY    50  30  46 NW6       30.14S
STANLEY          N/A     45  27  49 SE3       30.13F
SALMON         CLOUDY    45  37  76 CALM      30.07F
CHALLIS        CLOUDY    47  33  58 S3        30.10F
$$

IDZ002-004-006-007-026-310400-
NORTHERN IDAHO


CITY           SKY/WX    TMP DP  RH WIND       PRES   REMARKS
LEWISTON       CLOUDY    55  48  77 S3        29.83F
LOWELL           N/A     50  48  93 CALM      29.95F
COEUR D`ALENE  CLOUDY   N/A N/A N/A N16       29.88F
MULLAN PASS    CLOUDY    38  37  97 S10       30.01F WCI  31
$$



USA.gov is the U.S. government's official web portal to all federal, state and local government web resources and services.